Location: Oberkirch
(48.5323°N, 8.0787°E)
Time: 13:05:02
(UTC+00:00)

USA 234 - Visible Passes

Search period start: 14 February 2026 00:00
Search period end: 24 February 2026 00:00
Orbit: 1102 x 1106 km, 123.0° (Epoch: 4 January)

Date Brightness Start Highest point End Pass type
(mag) Time Alt. Az. Time Alt. Az. Time Alt. Az.
14 Feb 4.3 18:09:32 10° SSE 18:15:46 46° SW 18:22:02 10° WNW visible
14 Feb 5.8 19:58:03 10° SW 19:59:57 11° WSW 20:01:51 10° W visible
15 Feb 3.5 17:26:13 10° SE 17:32:47 77° SW 17:39:23 10° WNW visible
15 Feb 5.1 19:11:18 10° S 19:16:29 25° SW 19:21:42 10° WNW visible
16 Feb 4.2 18:27:03 10° SSE 18:33:16 45° SW 18:39:32 10° WNW visible
16 Feb 5.7 20:15:38 10° SW 20:17:27 11° WSW 20:19:17 10° W visible
17 Feb 3.5 17:43:43 10° SE 17:50:17 76° SW 17:56:52 10° WNW visible
17 Feb 5.1 19:28:49 10° S 19:33:59 25° SW 19:39:11 10° WNW visible
18 Feb 4.2 18:44:32 10° SSE 18:50:46 45° SW 18:57:02 10° WNW visible
18 Feb 5.7 20:33:13 10° SW 20:34:57 11° WSW 20:36:42 10° WSW visible
19 Feb 3.4 18:01:13 10° SE 18:07:46 76° SW 18:14:22 10° WNW visible
19 Feb 5.0 19:46:37 11° S 19:51:29 24° SW 19:56:40 10° WNW visible
20 Feb 3.3 17:18:28 10° ESE 17:24:59 73° NNE 17:31:32 10° NW visible
20 Feb 4.1 19:02:29 12° SSE 19:08:15 45° SW 19:14:31 10° WNW visible
20 Feb 5.6 20:50:48 10° SW 20:52:27 11° WSW 20:54:07 10° WSW visible
21 Feb 3.4 18:18:43 10° SE 18:25:16 76° SW 18:31:51 10° WNW visible
21 Feb 4.9 20:05:39 17° SSW 20:08:59 24° SW 20:14:09 10° WNW visible
22 Feb 3.3 17:35:58 10° ESE 17:42:29 73° NNE 17:49:02 10° NW visible
22 Feb 4.1 19:21:24 19° SSE 19:25:45 45° SW 19:32:01 10° WNW visible
22 Feb 5.6 21:08:46 10° SW 21:09:57 11° WSW 21:11:32 10° WSW visible
23 Feb 3.4 18:37:07 15° SE 18:42:46 76° SW 18:49:21 10° WNW visible
23 Feb 4.9 20:24:28 21° SSW 20:26:29 24° SW 20:31:38 10° WNW visible
